Flag for Switzerland Weather past 2 weeks in Lugano, Switzerland

Now
61 °F

Low clouds.


Feels Like: 61 °F
Forecast: 58 / 77 °F
Wind: 2 mph from North

Location: Lugano Airport

Current Time: Sep 19, 2014 at 8:21:39 AM

Latest Report: Sep 19, 2014 at 7:50 AM


Visibility: 5 mi

Pressure: 30.12 "Hg

Humidity: 94%

Dew point: 59 °F

Location of LuganoLocation

Historic Weather in Lugano — Graph

°F

Lugano temperature yesterday

Maximum temperature yesterday: 64 °F (at 12:20 AM)
Minimum temperature yesterday: 61 °F (at 7:20 AM)
Average temperature yesterday: 62 °F

Past Weeks' High & Low Weather Summary

 TemperatureHumidityPressure
High81 °F (Sep 6, 3:20 PM)100% (Sep 5, 2:50 AM)30.15 "Hg (Sep 5, 2:50 AM)
Low52 °F (Sep 12, 5:20 AM)27% (Sep 12, 2:50 PM)29.77 "Hg (Sep 11, 5:20 PM)
Average66 °F81%29.98 "Hg
* Reported Sep 4 7:20 AM — Sep 19 7:20 AM, Lugano, Weather by CustomWeather, © 2014

Note: Actual official high and low records may vary slightly from our data, if they occured in-between our weather recording intervals... More about our weather records

Advertising

Lugano weather history for previous 24 hours

 ConditionsComfort  
Time TempWeatherWind HumidityBarometerVisibility
7:20 AM
Sep 19
59 °FLow clouds.2 mph100%30.12 "Hg5 mi
6:50 AM59 °FLow clouds.1 mph100%30.12 "Hg5 mi
6:20 AM59 °FLow clouds.1 mph100%30.09 "Hg5 mi
5:50 AM59 °FLight rain. Low clouds.1 mph100%30.12 "HgN/A
5:20 AM59 °FOvercast.1 mph100%30.09 "HgN/A
4:50 AM59 °FOvercast.1 mph100%30.12 "HgN/A
4:20 AM59 °FLow clouds.2 mph100%30.12 "HgN/A
3:50 AM59 °FMostly cloudy.2 mph100%30.12 "Hg4 mi
3:20 AM61 °FOvercast.1 mph94%30.12 "HgN/A
2:50 AM59 °FOvercast.2 mph100%30.12 "Hg5 mi
2:20 AM59 °FOvercast.3 mph100%30.12 "Hg4 mi
1:50 AM61 °FSprinkles. Mostly cloudy.1 mph94%30.15 "Hg3 mi
1:20 AM61 °FSprinkles. Mostly cloudy.1 mph94%30.12 "HgN/A
12:50 AM61 °FOvercast.2 mph94%30.12 "HgN/A
12:20 AM61 °FOvercast.2 mph94%30.12 "Hg4 mi
11:50 PM
Sep 18
61 °FOvercast.1 mph88%30.12 "HgN/A
11:20 PM61 °FOvercast.2 mph94%30.12 "HgN/A
10:50 PM61 °FLow clouds.5 mph94%30.12 "Hg5 mi
10:20 PM61 °FLow clouds.1 mph94%30.12 "Hg6 mi
9:20 PM61 °FLow clouds.2 mph94%30.12 "Hg6 mi
8:50 PM61 °FLow clouds.2 mph94%30.12 "Hg6 mi
8:20 PM61 °FLow clouds.2 mph94%30.09 "Hg6 mi
7:50 PM61 °FLow clouds.1 mph94%30.09 "Hg6 mi
7:20 PM61 °FLow clouds.3 mph94%30.09 "Hg5 mi
6:50 PM61 °FMore clouds than sun.1 mph94%30.09 "Hg5 mi
6:20 PM61 °FMore clouds than sun.3 mph94%30.09 "Hg5 mi
5:50 PM61 °FMore clouds than sun.1 mph94%30.09 "Hg4 mi
5:20 PM61 °FSprinkles. Fog.1 mph94%30.09 "Hg3 mi
4:50 PM61 °FSprinkles. More clouds than sun.2 mph88%30.09 "Hg6 mi
4:20 PM63 °FSprinkles. Broken clouds.2 mph83%30.09 "Hg6 mi
3:50 PM63 °FSprinkles. More clouds than sun.1 mph88%30.09 "Hg6 mi
3:20 PM63 °FMore clouds than sun.1 mph88%30.09 "Hg6 mi
2:50 PM63 °FMore clouds than sun.1 mph88%30.09 "Hg6 mi
2:20 PM63 °FSprinkles. More clouds than sun.3 mph83%30.09 "Hg6 mi
1:50 PM64 °FMore clouds than sun.1 mph78%30.09 "Hg5 mi
1:20 PM64 °FLight rain. More clouds than sun.1 mph78%30.09 "Hg5 mi
12:50 PM64 °FMore clouds than sun.2 mph83%30.09 "Hg6 mi
12:20 PM64 °FMore clouds than sun.1 mph83%30.09 "Hg6 mi
11:50 AM63 °FMore clouds than sun.1 mph88%30.09 "Hg6 mi
11:20 AM63 °FSprinkles. More clouds than sun.2 mph83%30.09 "Hg6 mi
10:50 AM63 °FSprinkles. More clouds than sun.2 mph88%30.07 "Hg6 mi
10:20 AM63 °FMore clouds than sun.3 mph88%30.07 "Hg5 mi
9:50 AM64 °FMore clouds than sun.2 mph83%30.07 "Hg5 mi
9:20 AM63 °FBroken clouds.3 mph83%30.07 "Hg5 mi
8:50 AM63 °FBroken clouds.2 mph88%30.04 "Hg5 mi
8:20 AM63 °FPartly sunny.1 mph88%30.04 "Hg4 mi
Weather by CustomWeather, © 2014

See weather overviewHow to use our weather pages